Year,Month,Day,Hour,Minute,Value (Times are PST for temperature in C)
2006,07,26,00,00,15.80
2006,07,26,00,01,15.80
2006,07,26,00,02,15.70
2006,07,26,00,03,15.70
2006,07,26,00,04,15.70
2006,07,26,00,05,15.80
2006,07,26,00,06,15.80
2006,07,26,00,07,15.80
2006,07,26,00,08,15.80
2006,07,26,00,09,15.80
2006,07,26,00,10,15.80
2006,07,26,00,11,15.80
2006,07,26,00,12,15.80
2006,07,26,00,13,15.80
2006,07,26,00,14,15.80
2006,07,26,00,15,15.80
2006,07,26,00,16,15.80
2006,07,26,00,17,15.80
2006,07,26,00,18,15.80
2006,07,26,00,19,15.70
2006,07,26,00,20,15.70
2006,07,26,00,21,15.70
2006,07,26,00,22,15.70
2006,07,26,00,23,15.60
2006,07,26,00,24,15.60
2006,07,26,00,25,15.60
2006,07,26,00,26,15.60
2006,07,26,00,27,15.60
2006,07,26,00,28,15.60
2006,07,26,00,29,15.60
2006,07,26,00,30,15.60
2006,07,26,00,31,15.60
2006,07,26,00,32,15.60
2006,07,26,00,33,15.60
2006,07,26,00,34,15.60
2006,07,26,00,35,15.60
2006,07,26,00,36,15.60
2006,07,26,00,37,15.60
2006,07,26,00,38,15.60
2006,07,26,00,39,15.70
2006,07,26,00,40,15.70
2006,07,26,00,41,15.70
2006,07,26,00,42,15.70
2006,07,26,00,43,15.70
2006,07,26,00,44,15.70
2006,07,26,00,45,15.80
2006,07,26,00,46,15.80
2006,07,26,00,47,15.80
2006,07,26,00,48,15.80
2006,07,26,00,49,15.80
2006,07,26,00,50,15.80
2006,07,26,00,51,15.80
2006,07,26,00,52,15.80
2006,07,26,00,53,15.80
2006,07,26,00,54,15.80
2006,07,26,00,55,15.80
2006,07,26,00,56,15.80
2006,07,26,00,57,15.80
2006,07,26,00,58,15.70
2006,07,26,00,59,15.70
2006,07,26,01,00,15.70
2006,07,26,01,01,15.70
2006,07,26,01,02,15.70
2006,07,26,01,03,15.70
2006,07,26,01,04,15.60
2006,07,26,01,05,15.60
2006,07,26,01,06,15.60
2006,07,26,01,07,15.60
2006,07,26,01,08,15.50
2006,07,26,01,09,15.50
2006,07,26,01,10,15.50
2006,07,26,01,11,15.40
2006,07,26,01,12,15.30
2006,07,26,01,13,15.30
2006,07,26,01,14,15.30
2006,07,26,01,15,15.30
2006,07,26,01,16,15.30
2006,07,26,01,17,15.30
2006,07,26,01,18,15.30
2006,07,26,01,19,15.30
2006,07,26,01,20,15.30
2006,07,26,01,21,15.30
2006,07,26,01,22,15.30
2006,07,26,01,23,15.20
2006,07,26,01,24,15.20
2006,07,26,01,25,15.20
2006,07,26,01,26,15.20
2006,07,26,01,27,15.20
2006,07,26,01,28,15.20
2006,07,26,01,29,15.10
2006,07,26,01,30,15.10
2006,07,26,01,31,15.10
2006,07,26,01,32,15.10
2006,07,26,01,33,15.10
2006,07,26,01,34,15.10
2006,07,26,01,35,15.10
2006,07,26,01,36,15.10
2006,07,26,01,37,15.10
2006,07,26,01,38,15.20
2006,07,26,01,39,15.10
2006,07,26,01,40,15.10
2006,07,26,01,41,15.10
2006,07,26,01,42,15.10
2006,07,26,01,43,15.10
2006,07,26,01,44,15.10
2006,07,26,01,45,15.10
2006,07,26,01,46,15.00
2006,07,26,01,47,15.00
2006,07,26,01,48,15.00
2006,07,26,01,49,15.00
2006,07,26,01,50,15.00
2006,07,26,01,51,15.00
2006,07,26,01,52,14.90
2006,07,26,01,53,14.90
2006,07,26,01,54,14.90
2006,07,26,01,55,14.90
2006,07,26,01,56,14.90
2006,07,26,01,57,14.90
2006,07,26,01,58,14.90
2006,07,26,01,59,14.90
2006,07,26,02,00,14.90
2006,07,26,02,01,14.90
2006,07,26,02,02,14.90
2006,07,26,02,03,14.90
2006,07,26,02,04,14.90
2006,07,26,02,05,14.90
2006,07,26,02,06,14.90
2006,07,26,02,07,14.90
2006,07,26,02,08,14.90
2006,07,26,02,09,14.90
2006,07,26,02,10,14.90
2006,07,26,02,11,14.90
2006,07,26,02,12,14.90
2006,07,26,02,13,14.90
2006,07,26,02,14,14.90
2006,07,26,02,15,14.90
2006,07,26,02,16,14.90
2006,07,26,02,17,14.90
2006,07,26,02,18,14.90
2006,07,26,02,19,14.80
2006,07,26,02,20,14.80
2006,07,26,02,21,14.80
2006,07,26,02,22,14.80
2006,07,26,02,23,14.80
2006,07,26,02,24,14.80
2006,07,26,02,25,14.80
2006,07,26,02,26,14.90
2006,07,26,02,27,14.90
2006,07,26,02,28,14.90
2006,07,26,02,29,14.90
2006,07,26,02,30,14.90
2006,07,26,02,31,14.90
2006,07,26,02,32,14.90
2006,07,26,02,33,14.90
2006,07,26,02,34,14.90
2006,07,26,02,35,14.90
2006,07,26,02,36,14.90
2006,07,26,02,37,14.90
2006,07,26,02,38,14.90
2006,07,26,02,39,14.90
2006,07,26,02,40,14.80
2006,07,26,02,41,14.80
2006,07,26,02,42,14.80
2006,07,26,02,43,14.80
2006,07,26,02,44,14.80
2006,07,26,02,45,14.80
2006,07,26,02,46,14.80
2006,07,26,02,47,14.80
2006,07,26,02,48,14.80
2006,07,26,02,49,14.80
2006,07,26,02,50,14.80
2006,07,26,02,51,14.90
2006,07,26,02,52,14.90
2006,07,26,02,53,14.90
2006,07,26,02,54,14.90
2006,07,26,02,55,14.90
2006,07,26,02,56,14.90
2006,07,26,02,57,14.90
2006,07,26,02,58,14.90
2006,07,26,02,59,15.00
2006,07,26,03,00,15.00
2006,07,26,03,01,15.00
2006,07,26,03,02,15.00
2006,07,26,03,03,15.00
2006,07,26,03,04,15.00
2006,07,26,03,05,15.00
2006,07,26,03,06,15.00
2006,07,26,03,07,15.00
2006,07,26,03,08,15.00
2006,07,26,03,09,15.00
2006,07,26,03,10,15.00
2006,07,26,03,11,15.00
2006,07,26,03,12,15.00
2006,07,26,03,13,14.90
2006,07,26,03,14,14.90
2006,07,26,03,15,14.90
2006,07,26,03,16,14.90
2006,07,26,03,17,14.90
2006,07,26,03,18,14.90
2006,07,26,03,19,14.80
2006,07,26,03,20,14.80
2006,07,26,03,21,14.80
2006,07,26,03,22,14.80
2006,07,26,03,23,14.80
2006,07,26,03,24,14.80
2006,07,26,03,25,14.80
2006,07,26,03,26,14.80
2006,07,26,03,27,14.70
2006,07,26,03,28,14.70
2006,07,26,03,29,14.70
2006,07,26,03,30,14.70
2006,07,26,03,31,14.70
2006,07,26,03,32,14.60
2006,07,26,03,33,14.60
2006,07,26,03,34,14.60
2006,07,26,03,35,14.60
2006,07,26,03,36,14.60
2006,07,26,03,37,14.60
2006,07,26,03,38,14.60
2006,07,26,03,39,14.60
2006,07,26,03,40,14.60
2006,07,26,03,41,14.60
2006,07,26,03,42,14.50
2006,07,26,03,43,14.50
2006,07,26,03,44,14.50
2006,07,26,03,45,14.50
2006,07,26,03,46,14.50
2006,07,26,03,47,14.50
2006,07,26,03,48,14.50
2006,07,26,03,49,14.50
2006,07,26,03,50,14.50
2006,07,26,03,51,14.50
2006,07,26,03,52,14.50
2006,07,26,03,53,14.60
2006,07,26,03,54,14.60
2006,07,26,03,55,14.60
2006,07,26,03,56,14.60
2006,07,26,03,57,14.60
2006,07,26,03,58,14.60
2006,07,26,03,59,14.60
2006,07,26,04,00,14.60
2006,07,26,04,01,14.60
2006,07,26,04,02,14.60
2006,07,26,04,03,14.60
2006,07,26,04,04,14.60
2006,07,26,04,05,14.60
2006,07,26,04,06,14.60
2006,07,26,04,07,14.60
2006,07,26,04,08,14.60
2006,07,26,04,09,14.60
2006,07,26,04,10,14.60
2006,07,26,04,11,14.60
2006,07,26,04,12,14.60
2006,07,26,04,13,14.60
2006,07,26,04,14,14.60
2006,07,26,04,15,14.60
2006,07,26,04,16,14.60
2006,07,26,04,17,14.60
2006,07,26,04,18,14.50
2006,07,26,04,19,14.50
2006,07,26,04,20,14.50
2006,07,26,04,21,14.50
2006,07,26,04,22,14.50
2006,07,26,04,23,14.50
2006,07,26,04,24,14.50
2006,07,26,04,25,14.50
2006,07,26,04,26,14.50
2006,07,26,04,27,14.50
2006,07,26,04,28,14.50
2006,07,26,04,29,14.50
2006,07,26,04,30,14.50
2006,07,26,04,31,14.50
2006,07,26,04,32,14.50
2006,07,26,04,33,14.50
2006,07,26,04,34,14.50
2006,07,26,04,35,14.50
2006,07,26,04,36,14.50
2006,07,26,04,37,14.50
2006,07,26,04,38,14.50
2006,07,26,04,39,14.50
2006,07,26,04,40,14.50
2006,07,26,04,41,14.50
2006,07,26,04,42,14.40
2006,07,26,04,43,14.40
2006,07,26,04,44,14.40
2006,07,26,04,45,14.40
2006,07,26,04,46,14.40
2006,07,26,04,47,14.40
2006,07,26,04,48,14.40
2006,07,26,04,49,14.40
2006,07,26,04,50,14.40
2006,07,26,04,51,14.40
2006,07,26,04,52,14.40
2006,07,26,04,53,14.40
2006,07,26,04,54,14.30
2006,07,26,04,55,14.30
2006,07,26,04,56,14.30
2006,07,26,04,57,14.30
2006,07,26,04,58,14.30
2006,07,26,04,59,14.30
2006,07,26,05,00,14.30
2006,07,26,05,01,14.30
2006,07,26,05,02,14.20
2006,07,26,05,03,14.20
2006,07,26,05,04,14.20
2006,07,26,05,05,14.20
2006,07,26,05,06,14.20
2006,07,26,05,07,14.20
2006,07,26,05,08,14.20
2006,07,26,05,09,14.20
2006,07,26,05,10,14.20
2006,07,26,05,11,14.20
2006,07,26,05,12,14.20
2006,07,26,05,13,14.20
2006,07,26,05,14,14.20
2006,07,26,05,15,14.20
2006,07,26,05,16,14.20
2006,07,26,05,17,14.20
2006,07,26,05,18,14.20
2006,07,26,05,19,14.20
2006,07,26,05,20,14.20
2006,07,26,05,21,14.20
2006,07,26,05,22,14.20
2006,07,26,05,23,14.20
2006,07,26,05,24,14.20
2006,07,26,05,25,14.20
2006,07,26,05,26,14.20
2006,07,26,05,27,14.20
2006,07,26,05,28,14.20
2006,07,26,05,29,14.20
2006,07,26,05,30,14.20
2006,07,26,05,31,14.20
2006,07,26,05,32,14.20
2006,07,26,05,33,14.20
2006,07,26,05,34,14.20
2006,07,26,05,35,14.20
2006,07,26,05,36,14.20
2006,07,26,05,37,14.20
2006,07,26,05,38,14.20
2006,07,26,05,39,14.20
2006,07,26,05,40,14.20
2006,07,26,05,41,14.20
2006,07,26,05,42,14.20
2006,07,26,05,43,14.20
2006,07,26,05,44,14.20
2006,07,26,05,45,14.20
2006,07,26,05,46,14.20
2006,07,26,05,47,14.20
2006,07,26,05,48,14.20
2006,07,26,05,49,14.20
2006,07,26,05,50,14.20
2006,07,26,05,51,14.20
2006,07,26,05,52,14.20
2006,07,26,05,53,14.20
2006,07,26,05,54,14.20
2006,07,26,05,55,14.20
2006,07,26,05,56,14.20
2006,07,26,05,57,14.20
2006,07,26,05,58,14.20
2006,07,26,05,59,14.20
2006,07,26,06,00,14.20
2006,07,26,06,01,14.20
2006,07,26,06,02,14.20
2006,07,26,06,03,14.20
2006,07,26,06,04,14.30
2006,07,26,06,05,14.30
2006,07,26,06,06,14.30
2006,07,26,06,07,14.30
2006,07,26,06,08,14.40
2006,07,26,06,09,14.40
2006,07,26,06,10,14.40
2006,07,26,06,11,14.40
2006,07,26,06,12,14.50
2006,07,26,06,13,14.50
2006,07,26,06,14,14.50
2006,07,26,06,15,14.50
2006,07,26,06,16,14.50
2006,07,26,06,17,14.60
2006,07,26,06,18,14.60
2006,07,26,06,19,14.60
2006,07,26,06,20,14.60
2006,07,26,06,21,14.70
2006,07,26,06,22,14.70
2006,07,26,06,23,14.70
2006,07,26,06,24,14.70
2006,07,26,06,25,14.80
2006,07,26,06,26,14.80
2006,07,26,06,27,14.80
2006,07,26,06,28,14.90
2006,07,26,06,29,15.00
2006,07,26,06,30,15.10
2006,07,26,06,31,15.20
2006,07,26,06,32,15.20
2006,07,26,06,33,15.20
2006,07,26,06,34,15.30
2006,07,26,06,35,15.30
2006,07,26,06,36,15.30
2006,07,26,06,37,15.30
2006,07,26,06,38,15.30
2006,07,26,06,39,15.30
2006,07,26,06,40,15.30
2006,07,26,06,41,15.30
2006,07,26,06,42,15.30
2006,07,26,06,43,15.30
2006,07,26,06,44,15.30
2006,07,26,06,45,15.30
2006,07,26,06,46,15.30
2006,07,26,06,47,15.30
2006,07,26,06,48,15.30
2006,07,26,06,49,15.30
2006,07,26,06,50,15.30
2006,07,26,06,51,15.30
2006,07,26,06,52,15.30
2006,07,26,06,53,15.30
2006,07,26,06,54,15.30
2006,07,26,06,55,15.30
2006,07,26,06,56,15.40
2006,07,26,06,57,15.50
2006,07,26,06,58,15.50
2006,07,26,06,59,15.50
2006,07,26,07,00,15.50
2006,07,26,07,01,15.60
2006,07,26,07,02,15.50
2006,07,26,07,03,15.50
2006,07,26,07,04,15.50
2006,07,26,07,05,15.50
2006,07,26,07,06,15.50
2006,07,26,07,07,15.50
2006,07,26,07,08,15.50
2006,07,26,07,09,15.50
2006,07,26,07,10,15.50
2006,07,26,07,11,15.50
2006,07,26,07,12,15.50
2006,07,26,07,13,15.50
2006,07,26,07,14,15.50
2006,07,26,07,15,15.50
2006,07,26,07,16,15.60
2006,07,26,07,17,15.60
2006,07,26,07,18,15.60
2006,07,26,07,19,15.60
2006,07,26,07,20,15.70
2006,07,26,07,21,15.70
2006,07,26,07,22,15.80
2006,07,26,07,23,15.80
2006,07,26,07,24,15.80
2006,07,26,07,25,15.80
2006,07,26,07,26,15.80
2006,07,26,07,27,15.90
2006,07,26,07,28,15.90
2006,07,26,07,29,15.90
2006,07,26,07,30,15.90
2006,07,26,07,31,16.00
2006,07,26,07,32,16.10
2006,07,26,07,33,16.20
2006,07,26,07,34,16.20
2006,07,26,07,35,16.40
2006,07,26,07,36,16.40
2006,07,26,07,37,16.50
2006,07,26,07,38,16.60
2006,07,26,07,39,16.60
2006,07,26,07,40,16.60
2006,07,26,07,41,16.60
2006,07,26,07,42,16.60
2006,07,26,07,43,16.60
2006,07,26,07,44,16.60
2006,07,26,07,45,16.60
2006,07,26,07,46,16.60
2006,07,26,07,47,16.70
2006,07,26,07,48,16.70
2006,07,26,07,49,16.70
2006,07,26,07,50,16.70
2006,07,26,07,51,16.70
2006,07,26,07,52,16.80
2006,07,26,07,53,16.80
2006,07,26,07,54,16.90
2006,07,26,07,55,16.90
2006,07,26,07,56,16.90
2006,07,26,07,57,17.10
2006,07,26,07,58,17.20
2006,07,26,07,59,17.20
2006,07,26,08,00,17.30
2006,07,26,08,01,17.30
2006,07,26,08,02,17.30
2006,07,26,08,03,17.30
2006,07,26,08,04,17.30
2006,07,26,08,05,17.30
2006,07,26,08,06,17.30
2006,07,26,08,07,17.30
2006,07,26,08,08,17.30
2006,07,26,08,09,17.40
2006,07,26,08,10,17.40
2006,07,26,08,11,17.50
2006,07,26,08,12,17.50
2006,07,26,08,13,17.60
2006,07,26,08,14,17.70
2006,07,26,08,15,17.70
2006,07,26,08,16,17.70
2006,07,26,08,17,17.70
2006,07,26,08,18,17.80
2006,07,26,08,19,17.80
2006,07,26,08,20,17.90
2006,07,26,08,21,17.90
2006,07,26,08,22,18.10
2006,07,26,08,23,18.10
2006,07,26,08,24,18.20
2006,07,26,08,25,18.20
2006,07,26,08,26,18.20
2006,07,26,08,27,18.20
2006,07,26,08,28,18.30
2006,07,26,08,29,18.40
2006,07,26,08,30,18.40
2006,07,26,08,31,18.40
2006,07,26,08,32,18.40
2006,07,26,08,33,18.50
2006,07,26,08,34,18.50
2006,07,26,08,35,18.60
2006,07,26,08,36,18.60
2006,07,26,08,37,18.70
2006,07,26,08,38,18.70
2006,07,26,08,39,18.70
2006,07,26,08,40,18.70
2006,07,26,08,41,18.70
2006,07,26,08,42,18.80
2006,07,26,08,43,18.90
2006,07,26,08,44,19.00
2006,07,26,08,45,19.10
2006,07,26,08,46,19.20
2006,07,26,08,47,19.30
2006,07,26,08,48,19.50
2006,07,26,08,49,19.60
2006,07,26,08,50,19.70
2006,07,26,08,51,19.90
2006,07,26,08,52,20.00
2006,07,26,08,53,20.20
2006,07,26,08,54,20.20
2006,07,26,08,55,20.30
2006,07,26,08,56,20.30
2006,07,26,08,57,20.30
2006,07,26,08,58,20.40
2006,07,26,08,59,20.40
2006,07,26,09,00,20.40
2006,07,26,09,01,20.50
2006,07,26,09,02,20.60
2006,07,26,09,03,20.70
2006,07,26,09,04,20.80
2006,07,26,09,05,20.90
2006,07,26,09,06,21.00
2006,07,26,09,07,21.00
2006,07,26,09,08,21.10
2006,07,26,09,09,21.20
2006,07,26,09,10,21.30
2006,07,26,09,11,21.30
2006,07,26,09,12,21.30
2006,07,26,09,13,21.30
2006,07,26,09,14,21.40
2006,07,26,09,15,21.50
2006,07,26,09,16,21.60
2006,07,26,09,17,21.50
2006,07,26,09,18,21.30
2006,07,26,09,19,21.30
2006,07,26,09,20,21.10
2006,07,26,09,21,21.10
2006,07,26,09,22,21.10
2006,07,26,09,23,21.10
2006,07,26,09,24,21.20
2006,07,26,09,25,21.20
2006,07,26,09,26,21.30
2006,07,26,09,27,21.30
2006,07,26,09,28,21.30
2006,07,26,09,29,21.30
2006,07,26,09,30,21.30
2006,07,26,09,31,21.30
2006,07,26,09,32,21.40
2006,07,26,09,33,21.50
2006,07,26,09,34,21.60
2006,07,26,09,35,21.60
2006,07,26,09,36,21.50
2006,07,26,09,37,21.30
2006,07,26,09,38,21.10
2006,07,26,09,39,20.90
2006,07,26,09,40,20.70
2006,07,26,09,41,20.50
2006,07,26,09,42,20.40
2006,07,26,09,43,20.20
2006,07,26,09,44,20.10
2006,07,26,09,45,20.00
2006,07,26,09,46,19.90
2006,07,26,09,47,19.90
2006,07,26,09,48,19.80
2006,07,26,09,49,19.80
2006,07,26,09,50,19.80
2006,07,26,09,51,19.70
2006,07,26,09,52,19.70
2006,07,26,09,53,19.70
2006,07,26,09,54,19.70
2006,07,26,09,55,19.70
2006,07,26,09,56,19.80
2006,07,26,09,57,19.80
2006,07,26,09,58,19.90
2006,07,26,09,59,20.00
2006,07,26,10,00,20.10
2006,07,26,10,01,20.20
2006,07,26,10,02,20.20
2006,07,26,10,03,20.30
2006,07,26,10,04,20.30
2006,07,26,10,05,20.20
2006,07,26,10,06,20.20
2006,07,26,10,07,20.30
2006,07,26,10,08,20.30
2006,07,26,10,09,20.50
2006,07,26,10,10,20.60
2006,07,26,10,11,20.70
2006,07,26,10,12,20.80
2006,07,26,10,13,20.90
2006,07,26,10,14,20.90
2006,07,26,10,15,20.90
2006,07,26,10,16,20.90
2006,07,26,10,17,21.00
2006,07,26,10,18,21.10
2006,07,26,10,19,21.20
2006,07,26,10,20,21.30
2006,07,26,10,21,21.40
2006,07,26,10,22,21.50
2006,07,26,10,23,21.60
2006,07,26,10,24,21.70
2006,07,26,10,25,21.70
2006,07,26,10,26,21.60
2006,07,26,10,27,21.60
2006,07,26,10,28,21.80
2006,07,26,10,29,21.80
2006,07,26,10,30,21.90
2006,07,26,10,31,21.90
2006,07,26,10,32,22.00
2006,07,26,10,33,22.00
2006,07,26,10,34,22.10
2006,07,26,10,35,22.20
2006,07,26,10,36,22.30
2006,07,26,10,37,22.30
2006,07,26,10,38,22.20
2006,07,26,10,39,22.10
2006,07,26,10,40,22.10
2006,07,26,10,41,22.10
2006,07,26,10,42,22.00
2006,07,26,10,43,22.00
2006,07,26,10,44,22.00
2006,07,26,10,45,22.00
2006,07,26,10,46,21.90
2006,07,26,10,47,21.80
2006,07,26,10,48,21.80
2006,07,26,10,49,21.70
2006,07,26,10,50,21.70
2006,07,26,10,51,21.70
2006,07,26,10,52,21.70
2006,07,26,10,53,21.60
2006,07,26,10,54,21.60
2006,07,26,10,55,21.60
2006,07,26,10,56,21.70
2006,07,26,10,57,21.70
2006,07,26,10,58,21.60
2006,07,26,10,59,21.60
2006,07,26,11,00,21.40
2006,07,26,11,01,21.30
2006,07,26,11,02,21.30
2006,07,26,11,03,21.30
2006,07,26,11,04,21.40
2006,07,26,11,05,21.30
2006,07,26,11,06,21.30
2006,07,26,11,07,21.30
2006,07,26,11,08,21.30
2006,07,26,11,09,21.30
2006,07,26,11,10,21.40
2006,07,26,11,11,21.50
2006,07,26,11,12,21.60
2006,07,26,11,13,21.70
2006,07,26,11,14,21.90
2006,07,26,11,15,21.90
2006,07,26,11,16,21.80
2006,07,26,11,17,21.60
2006,07,26,11,18,21.60
2006,07,26,11,19,21.60
2006,07,26,11,20,21.60
2006,07,26,11,21,21.60
2006,07,26,11,22,21.60
2006,07,26,11,23,21.60
2006,07,26,11,24,21.70
2006,07,26,11,25,21.80
2006,07,26,11,26,22.00
2006,07,26,11,27,22.00
2006,07,26,11,28,22.20
2006,07,26,11,29,22.20
2006,07,26,11,30,22.30
2006,07,26,11,31,22.50
2006,07,26,11,32,22.70
2006,07,26,11,33,22.90
2006,07,26,11,34,23.00
2006,07,26,11,35,23.20
2006,07,26,11,36,23.30
2006,07,26,11,37,23.30
2006,07,26,11,38,23.30
2006,07,26,11,39,23.30
2006,07,26,11,40,23.30
2006,07,26,11,41,23.30
2006,07,26,11,42,23.30
2006,07,26,11,43,23.20
2006,07,26,11,44,23.10
2006,07,26,11,45,23.10
2006,07,26,11,46,23.10
2006,07,26,11,47,23.10
2006,07,26,11,48,23.00
2006,07,26,11,49,22.80
2006,07,26,11,50,22.80
2006,07,26,11,51,22.90
2006,07,26,11,52,22.90
2006,07,26,11,53,22.90
2006,07,26,11,54,22.70
2006,07,26,11,55,22.70
2006,07,26,11,56,22.70
2006,07,26,11,57,22.70
2006,07,26,11,58,22.70
2006,07,26,11,59,22.70
2006,07,26,12,00,22.70
2006,07,26,12,01,22.60
2006,07,26,12,02,22.60
2006,07,26,12,03,22.60
2006,07,26,12,04,22.60
2006,07,26,12,05,22.60
2006,07,26,12,06,22.60
2006,07,26,12,07,22.70
2006,07,26,12,08,22.80
2006,07,26,12,09,22.90
2006,07,26,12,10,22.90
2006,07,26,12,11,22.90
2006,07,26,12,12,23.00
2006,07,26,12,13,23.10
2006,07,26,12,14,23.20
2006,07,26,12,15,23.30
2006,07,26,12,16,23.30
2006,07,26,12,17,23.50
2006,07,26,12,18,23.60
2006,07,26,12,19,23.70
2006,07,26,12,20,23.80
2006,07,26,12,21,23.80
2006,07,26,12,22,23.80
2006,07,26,12,23,23.90
2006,07,26,12,24,24.00
2006,07,26,12,25,24.10
2006,07,26,12,26,24.10
2006,07,26,12,27,24.20
2006,07,26,12,28,24.40
2006,07,26,12,29,24.40
2006,07,26,12,30,24.50
2006,07,26,12,31,24.50
2006,07,26,12,32,24.50
2006,07,26,12,33,24.60
2006,07,26,12,34,24.60
2006,07,26,12,35,24.60
2006,07,26,12,36,24.50
2006,07,26,12,37,24.50
2006,07,26,12,38,24.50
2006,07,26,12,39,24.60
2006,07,26,12,40,24.50
2006,07,26,12,41,24.40
2006,07,26,12,42,24.30
2006,07,26,12,43,24.20
2006,07,26,12,44,24.10
2006,07,26,12,45,23.90
2006,07,26,12,46,23.70
2006,07,26,12,47,23.50
2006,07,26,12,48,23.40
2006,07,26,12,49,23.30
2006,07,26,12,50,23.30
2006,07,26,12,51,23.30
2006,07,26,12,52,23.40
2006,07,26,12,53,23.40
2006,07,26,12,54,23.40
2006,07,26,12,55,23.40
2006,07,26,12,56,23.30
2006,07,26,12,57,23.30
2006,07,26,12,58,23.30
2006,07,26,12,59,23.40
2006,07,26,13,00,23.50
2006,07,26,13,01,23.60
2006,07,26,13,02,23.70
2006,07,26,13,03,23.80
2006,07,26,13,04,23.90
2006,07,26,13,05,24.00
2006,07,26,13,06,24.10
2006,07,26,13,07,24.20
2006,07,26,13,08,24.30
2006,07,26,13,09,24.30
2006,07,26,13,10,24.30
2006,07,26,13,11,24.40
2006,07,26,13,12,24.50
2006,07,26,13,13,24.50
2006,07,26,13,14,24.60
2006,07,26,13,15,24.60
2006,07,26,13,16,24.70
2006,07,26,13,17,24.80
2006,07,26,13,18,24.80
2006,07,26,13,19,24.90
2006,07,26,13,20,24.90
2006,07,26,13,21,25.00
2006,07,26,13,22,25.10
2006,07,26,13,23,25.20
2006,07,26,13,24,25.20
2006,07,26,13,25,25.20
2006,07,26,13,26,25.20
2006,07,26,13,27,25.20
2006,07,26,13,28,25.30
2006,07,26,13,29,25.30
2006,07,26,13,30,25.20
2006,07,26,13,31,25.00
2006,07,26,13,32,25.00
2006,07,26,13,33,25.00
2006,07,26,13,34,25.00
2006,07,26,13,35,25.00
2006,07,26,13,36,25.00
2006,07,26,13,37,25.00
2006,07,26,13,38,25.10
2006,07,26,13,39,25.10
2006,07,26,13,40,25.10
2006,07,26,13,41,25.10
2006,07,26,13,42,25.10
2006,07,26,13,43,25.10
2006,07,26,13,44,25.00
2006,07,26,13,45,25.00
2006,07,26,13,46,24.90
2006,07,26,13,47,24.80
2006,07,26,13,48,24.70
2006,07,26,13,49,24.60
2006,07,26,13,50,24.50
2006,07,26,13,51,24.30
2006,07,26,13,52,24.10
2006,07,26,13,53,23.90
2006,07,26,13,54,23.80
2006,07,26,13,55,23.70
2006,07,26,13,56,23.40
2006,07,26,13,57,23.10
2006,07,26,13,58,22.90
2006,07,26,13,59,22.90
2006,07,26,14,00,22.90
2006,07,26,14,01,22.90
2006,07,26,14,02,23.10
2006,07,26,14,03,23.10
2006,07,26,14,04,23.20
2006,07,26,14,05,23.20
2006,07,26,14,06,23.30
2006,07,26,14,07,23.30
2006,07,26,14,08,23.30
2006,07,26,14,09,23.30
2006,07,26,14,10,23.20
2006,07,26,14,11,23.20
2006,07,26,14,12,23.20
2006,07,26,14,13,23.20
2006,07,26,14,14,23.20
2006,07,26,14,15,23.10
2006,07,26,14,16,23.10
2006,07,26,14,17,23.00
2006,07,26,14,18,22.90
2006,07,26,14,19,22.90
2006,07,26,14,20,22.90
2006,07,26,14,21,22.90
2006,07,26,14,22,22.90
2006,07,26,14,23,22.70
2006,07,26,14,24,22.70
2006,07,26,14,25,22.60
2006,07,26,14,26,22.60
2006,07,26,14,27,22.50
2006,07,26,14,28,22.60
2006,07,26,14,29,22.70
2006,07,26,14,30,22.90
2006,07,26,14,31,22.80
2006,07,26,14,32,22.80
2006,07,26,14,33,22.80
2006,07,26,14,34,22.60
2006,07,26,14,35,22.60
2006,07,26,14,36,22.50
2006,07,26,14,37,22.60
2006,07,26,14,38,22.70
2006,07,26,14,39,22.80
2006,07,26,14,40,22.90
2006,07,26,14,41,22.90
2006,07,26,14,42,22.90
2006,07,26,14,43,22.90
2006,07,26,14,44,23.10
2006,07,26,14,45,23.20
2006,07,26,14,46,23.30
2006,07,26,14,47,23.40
2006,07,26,14,48,23.40
2006,07,26,14,49,23.40
2006,07,26,14,50,23.40
2006,07,26,14,51,23.50
2006,07,26,14,52,23.70
2006,07,26,14,53,23.70
2006,07,26,14,54,23.80
2006,07,26,14,55,23.80
2006,07,26,14,56,23.80
2006,07,26,14,57,23.80
2006,07,26,14,58,23.90
2006,07,26,14,59,23.90
2006,07,26,15,00,24.00
2006,07,26,15,01,24.10
2006,07,26,15,02,24.10
2006,07,26,15,03,24.30
2006,07,26,15,04,24.40
2006,07,26,15,05,24.50
2006,07,26,15,06,24.60
2006,07,26,15,07,24.70
2006,07,26,15,08,24.70
2006,07,26,15,09,24.80
2006,07,26,15,10,24.90
2006,07,26,15,11,24.90
2006,07,26,15,12,24.90
2006,07,26,15,13,25.00
2006,07,26,15,14,25.00
2006,07,26,15,15,25.00
2006,07,26,15,16,24.90
2006,07,26,15,17,25.00
2006,07,26,15,18,25.00
2006,07,26,15,19,25.10
2006,07,26,15,20,25.10
2006,07,26,15,21,25.20
2006,07,26,15,22,25.20
2006,07,26,15,23,25.30
2006,07,26,15,24,25.30
2006,07,26,15,25,25.40
2006,07,26,15,26,25.40
2006,07,26,15,27,25.50
2006,07,26,15,28,25.40
2006,07,26,15,29,25.40
2006,07,26,15,30,25.50
2006,07,26,15,31,25.50
2006,07,26,15,32,25.60
2006,07,26,15,33,25.60
2006,07,26,15,34,25.60
2006,07,26,15,35,25.70
2006,07,26,15,36,25.60
2006,07,26,15,37,25.60
2006,07,26,15,38,25.60
2006,07,26,15,39,25.70
2006,07,26,15,40,25.80
2006,07,26,15,41,25.90
2006,07,26,15,42,25.90
2006,07,26,15,43,26.00
2006,07,26,15,44,26.10
2006,07,26,15,45,26.20
2006,07,26,15,46,26.20
2006,07,26,15,47,26.30
2006,07,26,15,48,26.20
2006,07,26,15,49,26.30
2006,07,26,15,50,26.40
2006,07,26,15,51,26.40
2006,07,26,15,52,26.40
2006,07,26,15,53,26.40
2006,07,26,15,54,26.50
2006,07,26,15,55,26.60
2006,07,26,15,56,26.50
2006,07,26,15,57,26.50
2006,07,26,15,58,26.50
2006,07,26,15,59,26.40
2006,07,26,16,00,26.30
2006,07,26,16,01,26.30
2006,07,26,16,02,26.20
2006,07,26,16,03,26.20
2006,07,26,16,04,26.30
2006,07,26,16,05,26.40
2006,07,26,16,06,26.40
2006,07,26,16,07,26.60
2006,07,26,16,08,26.60
2006,07,26,16,09,26.60
2006,07,26,16,10,26.80
2006,07,26,16,11,26.80
2006,07,26,16,12,26.70
2006,07,26,16,13,26.70
2006,07,26,16,14,26.60
2006,07,26,16,15,26.60
2006,07,26,16,16,26.60
2006,07,26,16,17,26.50
2006,07,26,16,18,26.40
2006,07,26,16,19,26.40
2006,07,26,16,20,26.40
2006,07,26,16,21,26.40
2006,07,26,16,22,26.40
2006,07,26,16,23,26.30
2006,07,26,16,24,26.30
2006,07,26,16,25,26.20
2006,07,26,16,26,26.10
2006,07,26,16,27,26.20
2006,07,26,16,28,26.30
2006,07,26,16,29,26.40
2006,07,26,16,30,26.50
2006,07,26,16,31,26.60
2006,07,26,16,32,26.70
2006,07,26,16,33,26.80
2006,07,26,16,34,27.00
2006,07,26,16,35,27.10
2006,07,26,16,36,27.30
2006,07,26,16,37,27.30
2006,07,26,16,38,27.40
2006,07,26,16,39,27.50
2006,07,26,16,40,27.60
2006,07,26,16,41,27.40
2006,07,26,16,42,27.40
2006,07,26,16,43,27.20
2006,07,26,16,44,26.90
2006,07,26,16,45,26.70
2006,07,26,16,46,26.60
2006,07,26,16,47,26.60
2006,07,26,16,48,26.60
2006,07,26,16,49,26.60
2006,07,26,16,50,26.60
2006,07,26,16,51,26.70
2006,07,26,16,52,26.70
2006,07,26,16,53,26.80
2006,07,26,16,54,27.00
2006,07,26,16,55,27.10
2006,07,26,16,56,27.20
2006,07,26,16,57,27.10
2006,07,26,16,58,27.00
2006,07,26,16,59,26.90
2006,07,26,17,00,26.80
2006,07,26,17,01,26.60
2006,07,26,17,02,26.60
2006,07,26,17,03,26.60
2006,07,26,17,04,26.60
2006,07,26,17,05,26.60
2006,07,26,17,06,26.60
2006,07,26,17,07,26.60
2006,07,26,17,08,26.60
2006,07,26,17,09,26.70
2006,07,26,17,10,26.60
2006,07,26,17,11,26.60
2006,07,26,17,12,26.60
2006,07,26,17,13,26.60
2006,07,26,17,14,26.60
2006,07,26,17,15,26.70
2006,07,26,17,16,26.80
2006,07,26,17,17,26.80
2006,07,26,17,18,26.90
2006,07,26,17,19,27.00